| time (UTC) | temp C | wind direction | speed KPH | gust KPH | rain 1hr cm | rain 24hr cm | rain mn cm | humidity % | barometer mb |
| 20260505010004 | 25 | 163 | 12.9 | 25.7 | 0.00 | 0.00 | 0.00 | 68 | 1009.9 |
| 20260505005504 | 26 | 164 | 11.3 | 25.7 | 0.00 | 0.00 | 0.00 | 67 | 1009.9 |
| 20260505005025 | 26 | 165 | 9.7 | 27.4 | 0.00 | 0.00 | 0.00 | 67 | 1010.0 |
| 20260505004504 | 26 | 172 | 12.9 | 29.0 | 0.00 | 0.00 | 0.00 | 66 | 1010.0 |
| 20260505004004 | 26 | 174 | 16.1 | 29.0 | 0.00 | 0.00 | 0.00 | 66 | 1009.9 |
| 20260505003504 | 26 | 169 | 12.9 | 27.4 | 0.00 | 0.00 | 0.00 | 65 | 1009.9 |
| 20260505003004 | 26 | 162 | 12.9 | 29.0 | 0.00 | 0.00 | 0.00 | 65 | 1009.9 |
| 20260505002504 | 26 | 168 | 16.1 | 32.2 | 0.00 | 0.00 | 0.00 | 64 | 1009.9 |
| 20260505002025 | 26 | 173 | 17.7 | 32.2 | 0.00 | 0.00 | 0.00 | 64 | 1009.9 |
| 20260505001525 | 26 | 165 | 16.1 | 30.6 | 0.00 | 0.00 | 0.00 | 63 | 1009.8 |
| 20260505001004 | 27 | 159 | 16.1 | 30.6 | 0.00 | 0.00 | 0.00 | 63 | 1009.9 |
| 20260505000504 | 27 | 164 | 16.1 | 27.4 | 0.00 | 0.00 | 0.00 | 63 | 1010.0 |
| 20260505000004 | 27 | 170 | 16.1 | 27.4 | 0.00 | 0.00 | 0.00 | 62 | 1010.0 |
| 20260504235525 | 27 | 170 | 16.1 | 29.0 | 0.00 | 0.00 | 0.00 | 62 | 1009.9 |
| 20260504235004 | 27 | 168 | 16.1 | 29.0 | 0.00 | 0.00 | 0.00 | 61 | 1010.0 |
| 20260504234504 | 27 | 169 | 16.1 | 32.2 | 0.00 | 0.00 | 0.00 | 61 | 1010.1 |
| 20260504234025 | 27 | 176 | 17.7 | 32.2 | 0.00 | 0.00 | 0.00 | 60 | 1010.2 |
| 20260504233504 | 27 | 178 | 16.1 | 32.2 | 0.00 | 0.00 | 0.00 | 60 | 1010.3 |
| 20260504233004 | 27 | 181 | 17.7 | 35.4 | 0.00 | 0.00 | 0.00 | 59 | 1010.3 |
| 20260504232504 | 27 | 180 | 19.3 | 35.4 | 0.00 | 0.00 | 0.00 | 60 | 1010.3 |
| 20260504232004 | 27 | 173 | 20.9 | 45.1 | 0.00 | 0.00 | 0.00 | 59 | 1010.3 |
| 20260504231504 | 27 | 168 | 19.3 | 45.1 | 0.00 | 0.00 | 0.00 | 59 | 1010.4 |
| 20260504231004 | 27 | 168 | 16.1 | 40.2 | 0.00 | 0.00 | 0.00 | 59 | 1010.4 |
| 20260504230503 | 27 | 169 | 17.7 | 32.2 | 0.00 | 0.00 | 0.00 | 59 | 1010.6 |
| 20260504230004 | 27 | 167 | 16.1 | 32.2 | 0.00 | 0.00 | 0.00 | 59 | 1010.7 |
| 20260504225504 | 27 | 166 | 16.1 | 30.6 | 0.00 | 0.00 | 0.00 | 58 | 1010.7 |
| 20260504225004 | 28 | 172 | 16.1 | 35.4 | 0.00 | 0.00 | 0.00 | 58 | 1010.8 |
| 20260504224504 | 28 | 173 | 17.7 | 37.0 | 0.00 | 0.00 | 0.00 | 58 | 1010.8 |
| 20260504224004 | 28 | 174 | 19.3 | 37.0 | 0.00 | 0.00 | 0.00 | 57 | 1010.8 |
| 20260504223525 | 28 | 170 | 19.3 | 37.0 | 0.00 | 0.00 | 0.00 | 58 | 1011.0 |
| 20260504223003 | 28 | 169 | 17.7 | 38.6 | 0.00 | 0.00 | 0.00 | 58 | 1010.8 |
| 20260504222504 | 28 | 166 | 17.7 | 38.6 | 0.00 | 0.00 | 0.00 | 58 | 1010.9 |
| 20260504222004 | 28 | 169 | 19.3 | 41.8 | 0.00 | 0.00 | 0.00 | 59 | 1010.9 |
| 20260504221524 | 28 | 171 | 19.3 | 41.8 | 0.00 | 0.00 | 0.00 | 59 | 1011.0 |
| 20260504221003 | 28 | 161 | 17.7 | 37.0 | 0.00 | 0.00 | 0.00 | 58 | 1011.1 |
| 20260504220503 | 28 | 163 | 17.7 | 30.6 | 0.00 | 0.00 | 0.00 | 59 | 1011.1 |
| 20260504220004 | 28 | 167 | 17.7 | 30.6 | 0.00 | 0.00 | 0.00 | 57 | 1011.1 |
| 20260504215504 | 28 | 171 | 17.7 | 37.0 | 0.00 | 0.00 | 0.00 | 58 | 1011.1 |
| 20260504215004 | 28 | 168 | 19.3 | 37.0 | 0.00 | 0.00 | 0.00 | 57 | 1011.1 |
| 20260504214504 | 29 | 165 | 17.7 | 40.2 | 0.00 | 0.00 | 0.00 | 58 | 1011.1 |
| 20260504214024 | 28 | 167 | 17.7 | 40.2 | 0.00 | 0.00 | 0.00 | 57 | 1011.2 |
| 20260504213524 | 28 | 169 | 17.7 | 38.6 | 0.00 | 0.00 | 0.00 | 57 | 1011.1 |
| 20260504213004 | 28 | 176 | 12.9 | 27.4 | 0.00 | 0.00 | 0.00 | 56 | 1011.3 |
| 20260504212504 | 28 | 168 | 16.1 | 30.6 | 0.00 | 0.00 | 0.00 | 58 | 1011.4 |
| 20260504212004 | 29 | 166 | 16.1 | 30.6 | 0.00 | 0.00 | 0.00 | 55 | 1011.4 |
| 20260504211504 | 29 | 170 | 16.1 | 30.6 | 0.00 | 0.00 | 0.00 | 56 | 1011.6 |
| 20260504211024 | 29 | 168 | 17.7 | 41.8 | 0.00 | 0.00 | 0.00 | 55 | 1011.5 |
| 20260504210504 | 29 | 159 | 17.7 | 41.8 | 0.00 | 0.00 | 0.00 | 55 | 1011.7 |
| 20260504210025 | 28 | 152 | 19.3 | 38.6 | 0.00 | 0.00 | 0.00 | 58 | 1011.8 |
| 20260504205503 | 28 | 158 | 17.7 | 32.2 | 0.00 | 0.00 | 0.00 | 57 | 1011.8 |
| 20260504205003 | 28 | 170 | 19.3 | 32.2 | 0.00 | 0.00 | 0.00 | 55 | 1011.9 |
| 20260504204525 | 28 | 171 | 19.3 | 35.4 | 0.00 | 0.00 | 0.00 | 57 | 1011.9 |
| 20260504204004 | 28 | 157 | 17.7 | 37.0 | 0.00 | 0.00 | 0.00 | 54 | 1012.0 |
| 20260504203504 | 29 | 161 | 16.1 | 37.0 | 0.00 | 0.00 | 0.00 | 56 | 1012.2 |
| 20260504203004 | 29 | 173 | 12.9 | 32.2 | 0.00 | 0.00 | 0.00 | 56 | 1012.3 |
| 20260504202504 | 28 | 165 | 16.1 | 41.8 | 0.00 | 0.00 | 0.00 | 56 | 1012.5 |
| 20260504202003 | 28 | 166 | 17.7 | 41.8 | 0.00 | 0.00 | 0.00 | 56 | 1012.6 |
| 20260504201504 | 28 | 176 | 16.1 | 40.2 | 0.00 | 0.00 | 0.00 | 58 | 1012.5 |
| 20260504201024 | 28 | 179 | 17.7 | 40.2 | 0.00 | 0.00 | 0.00 | 56 | 1012.5 |
| 20260504200503 | 28 | 169 | 17.7 | 38.6 | 0.00 | 0.00 | 0.00 | 56 | 1012.8 |
| 20260504200024 | 28 | 158 | 17.7 | 38.6 | 0.00 | 0.00 | 0.00 | 58 | 1012.8 |
| 20260504195503 | 28 | 159 | 16.1 | 32.2 | 0.00 | 0.00 | 0.00 | 58 | 1013.1 |
| 20260504195003 | 28 | 172 | 16.1 | 37.0 | 0.00 | 0.00 | 0.00 | 57 | 1013.1 |
| 20260504194504 | 28 | 167 | 17.7 | 37.0 | 0.00 | 0.00 | 0.00 | 58 | 1013.2 |
| 20260504194004 | 28 | 166 | 17.7 | 32.2 | 0.00 | 0.00 | 0.00 | 59 | 1013.1 |
| 20260504193504 | 28 | 172 | 16.1 | 32.2 | 0.00 | 0.00 | 0.00 | 59 | 1013.2 |
| 20260504193004 | 27 | 177 | 17.7 | 35.4 | 0.00 | 0.00 | 0.00 | 58 | 1013.4 |
| 20260504192503 | 27 | 170 | 17.7 | 35.4 | 0.00 | 0.00 | 0.00 | 60 | 1013.4 |
| 20260504192003 | 27 | 162 | 16.1 | 30.6 | 0.00 | 0.00 | 0.00 | 60 | 1013.4 |
| 20260504191503 | 27 | 170 | 16.1 | 29.0 | 0.00 | 0.00 | 0.00 | 62 | 1013.5 |
| 20260504191004 | 27 | 171 | 17.7 | 35.4 | 0.00 | 0.00 | 0.00 | 60 | 1013.7 |
| 20260504190504 | 27 | 172 | 16.1 | 35.4 | 0.00 | 0.00 | 0.00 | 60 | 1013.7 |
| 20260504190004 | 27 | 175 | 16.1 | 30.6 | 0.00 | 0.00 | 0.00 | 60 | 1013.8 |
| 20260504185503 | 27 | 175 | 17.7 | 32.2 | 0.00 | 0.00 | 0.00 | 62 | 1013.8 |
| 20260504185004 | 27 | 173 | 17.7 | 37.0 | 0.00 | 0.00 | 0.00 | 59 | 1013.8 |
| 20260504184503 | 27 | 173 | 17.7 | 37.0 | 0.00 | 0.00 | 0.00 | 58 | 1014.0 |
| 20260504184003 | 27 | 169 | 16.1 | 29.0 | 0.00 | 0.00 | 0.00 | 59 | 1014.1 |
| 20260504183524 | 27 | 174 | 16.1 | 30.6 | 0.00 | 0.00 | 0.00 | 59 | 1014.2 |
| 20260504183004 | 27 | 175 | 16.1 | 32.2 | 0.00 | 0.00 | 0.00 | 60 | 1014.3 |
| 20260504182525 | 27 | 166 | 17.7 | 35.4 | 0.00 | 0.00 | 0.00 | 60 | 1014.3 |
| 20260504182004 | 26 | 167 | 17.7 | 35.4 | 0.00 | 0.00 | 0.00 | 63 | 1014.3 |
| 20260504181504 | 26 | 166 | 17.7 | 40.2 | 0.00 | 0.00 | 0.00 | 61 | 1014.4 |
| 20260504181003 | 26 | 171 | 17.7 | 40.2 | 0.00 | 0.00 | 0.00 | 61 | 1014.3 |
| 20260504180504 | 27 | 175 | 17.7 | 38.6 | 0.00 | 0.00 | 0.00 | 60 | 1014.3 |
| 20260504180003 | 27 | 174 | 17.7 | 38.6 | 0.00 | 0.00 | 0.00 | 61 | 1014.5 |
| 20260504175524 | 27 | 176 | 16.1 | 35.4 | 0.00 | 0.00 | 0.00 | 62 | 1014.6 |
| 20260504175004 | 26 | 176 | 16.1 | 32.2 | 0.00 | 0.00 | 0.00 | 63 | 1014.7 |
| 20260504174504 | 26 | 172 | 16.1 | 32.2 | 0.00 | 0.00 | 0.00 | 64 | 1014.8 |
| 20260504174003 | 26 | 174 | 16.1 | 35.4 | 0.00 | 0.00 | 0.00 | 66 | 1015.1 |
| 20260504173503 | 25 | 180 | 9.7 | 35.4 | 0.00 | 0.00 | 0.00 | 69 | 1015.2 |
| 20260504173003 | 24 | 185 | 11.3 | 27.4 | 0.00 | 0.00 | 0.00 | 70 | 1015.3 |
| 20260504172503 | 24 | 189 | 16.1 | 27.4 | 0.00 | 0.00 | 0.00 | 70 | 1015.3 |
| 20260504172003 | 24 | 187 | 16.1 | 30.6 | 0.00 | 0.00 | 0.00 | 69 | 1015.4 |
| 20260504171503 | 23 | 184 | 16.1 | 32.2 | 0.00 | 0.00 | 0.00 | 69 | 1015.4 |
| 20260504171003 | 23 | 182 | 16.1 | 32.2 | 0.00 | 0.00 | 0.00 | 71 | 1015.4 |
| 20260504170525 | 23 | 187 | 12.9 | 30.6 | 0.00 | 0.00 | 0.00 | 71 | 1015.4 |
| 20260504151003 | 21 | 154 | 12.9 | 27.4 | 0.00 | 0.00 | 0.00 | 76 | 1016.4 |
| 20260504150503 | 21 | 150 | 11.3 | 27.4 | 0.00 | 0.00 | 0.00 | 76 | 1016.4 |
| 20260504141003 | 19 | 165 | 12.9 | 35.4 | 0.00 | 0.00 | 0.00 | 78 | 1016.6 |
| 20260504140524 | 19 | 163 | 12.9 | 35.4 | 0.00 | 0.00 | 0.00 | 78 | 1016.5 |
| 20260504130504 | 16 | 171 | 9.7 | 19.3 | 0.00 | 0.00 | 0.00 | 86 | 1016.5 |
| 20260504110504 | 14 | 159 | 0.0 | 6.4 | 0.00 | 0.00 | 0.00 | 82 | 1016.2 |
| 20260504100504 | 16 | 159 | 1.6 | 3.2 | 0.00 | 0.00 | 0.00 | 81 | 1016.3 |
| 20260504081503 | 17 | 153 | 3.2 | 9.7 | 0.00 | 0.00 | 0.00 | 77 | 1017.0 |
| 20260504081003 | 17 | 153 | 6.4 | 9.7 | 0.00 | 0.00 | 0.00 | 77 | 1017.0 |
| 20260504080524 | 17 | 153 | 6.4 | 11.3 | 0.00 | 0.00 | 0.00 | 77 | 1017.0 |
| 20260504050503 | 18 | 160 | 9.7 | 19.3 | 0.00 | 0.00 | 0.00 | 67 | 1019.3 |
| 20260504050004 | 18 | 161 | 8.0 | 19.3 | 0.00 | 0.00 | 0.00 | 67 | 1019.3 |
| 20260504045503 | 18 | 159 | 9.7 | 25.7 | 0.00 | 0.00 | 0.00 | 67 | 1019.2 |
| 20260504045004 | 18 | 159 | 9.7 | 25.7 | 0.00 | 0.00 | 0.00 | 67 | 1019.2 |
| 20260504044503 | 18 | 164 | 9.7 | 20.9 | 0.00 | 0.00 | 0.00 | 66 | 1019.2 |
| 20260504044003 | 18 | 164 | 9.7 | 20.9 | 0.00 | 0.00 | 0.00 | 66 | 1019.3 |
| 20260504043503 | 19 | 163 | 9.7 | 22.5 | 0.00 | 0.00 | 0.00 | 66 | 1019.3 |
| 20260504043003 | 18 | 160 | 9.7 | 22.5 | 0.00 | 0.00 | 0.00 | 66 | 1019.2 |
| 20260504042524 | 18 | 162 | 11.3 | 22.5 | 0.00 | 0.00 | 0.00 | 66 | 1019.2 |
| 20260504042003 | 18 | 163 | 11.3 | 22.5 | 0.00 | 0.00 | 0.00 | 66 | 1019.4 |
| 20260504041503 | 18 | 157 | 9.7 | 22.5 | 0.00 | 0.00 | 0.00 | 66 | 1019.5 |
| 20260504041004 | 18 | 155 | 9.7 | 19.3 | 0.00 | 0.00 | 0.00 | 66 | 1019.3 |
| 20260504040503 | 18 | 156 | 9.7 | 19.3 | 0.00 | 0.00 | 0.00 | 66 | 1019.3 |
| 20260504040004 | 18 | 158 | 8.0 | 16.1 | 0.00 | 0.00 | 0.00 | 67 | 1019.5 |
| 20260504035503 | 17 | 161 | 6.4 | 11.3 | 0.00 | 0.00 | 0.00 | 66 | 1019.3 |
| 20260504035003 | 17 | 159 | 8.0 | 17.7 | 0.00 | 0.00 | 0.00 | 67 | 1019.4 |
| 20260504034503 | 17 | 151 | 8.0 | 17.7 | 0.00 | 0.00 | 0.00 | 67 | 1019.3 |
| 20260504034003 | 17 | 148 | 8.0 | 17.7 | 0.00 | 0.00 | 0.00 | 68 | 1019.3 |
| 20260504033503 | 17 | 158 | 8.0 | 17.7 | 0.00 | 0.00 | 0.00 | 67 | 1019.3 |
| 20260504033003 | 16 | 163 | 8.0 | 12.9 | 0.00 | 0.00 | 0.00 | 67 | 1019.3 |
| 20260504032503 | 16 | 159 | 6.4 | 12.9 | 0.00 | 0.00 | 0.00 | 66 | 1019.1 |
| 20260504032003 | 17 | 152 | 3.2 | 12.9 | 0.00 | 0.00 | 0.00 | 65 | 1019.2 |
| 20260504031524 | 17 | 148 | 3.2 | 9.7 | 0.00 | 0.00 | 0.00 | 64 | 1019.3 |
| 20260504031003 | 17 | 148 | 1.6 | 9.7 | 0.00 | 0.00 | 0.00 | 64 | 1019.3 |
| 20260504030503 | 17 | 148 | 0.0 | 1.6 | 0.00 | 0.00 | 0.00 | 63 | 1019.1 |
| 20260504030003 | 17 | 0 | 0.0 | 0.0 | 0.00 | 0.00 | 0.00 | 62 | 1019.1 |
| 20260504025503 | 18 | 0 | 0.0 | 0.0 | 0.00 | 0.00 | 0.00 | 61 | 1019.3 |
| 20260504025024 | 18 | 0 | 0.0 | 0.0 | 0.00 | 0.00 | 0.00 | 60 | 1019.2 |
| 20260504024503 | 18 | 0 | 0.0 | 0.0 | 0.00 | 0.00 | 0.00 | 59 | 1019.1 |
| 20260504024003 | 18 | 0 | 0.0 | 0.0 | 0.00 | 0.00 | 0.00 | 59 | 1019.1 |
| 20260504023503 | 19 | 0 | 0.0 | 0.0 | 0.00 | 0.00 | 0.00 | 57 | 1019.0 |
| 20260504023024 | 19 | 0 | 0.0 | 0.0 | 0.00 | 0.00 | 0.00 | 57 | 1019.0 |
| 20260504022524 | 20 | 0 | 0.0 | 0.0 | 0.00 | 0.00 | 0.00 | 57 | 1019.0 |
| 20260504022003 | 20 | 0 | 0.0 | 0.0 | 0.00 | 0.00 | 0.00 | 56 | 1019.0 |
| 20260504021503 | 20 | 0 | 0.0 | 0.0 | 0.00 | 0.00 | 0.00 | 54 | 1019.2 |
| 20260504021003 | 20 | 0 | 0.0 | 0.0 | 0.00 | 0.00 | 0.00 | 53 | 1019.1 |
| 20260504020503 | 21 | 0 | 0.0 | 0.0 | 0.00 | 0.00 | 0.00 | 53 | 1019.0 |
| 20260504020003 | 21 | 148 | 0.0 | 3.2 | 0.00 | 0.00 | 0.00 | 52 | 1019.0 |
| 20260504015503 | 21 | 148 | 1.6 | 3.2 | 0.00 | 0.00 | 0.00 | 52 | 1018.9 |
| 20260504015003 | 21 | 148 | 1.6 | 3.2 | 0.00 | 0.00 | 0.00 | 50 | 1018.8 |
| 20260504014503 | 21 | 148 | 1.6 | 8.0 | 0.00 | 0.00 | 0.00 | 48 | 1018.6 |
| 20260504014004 | 22 | 148 | 3.2 | 8.0 | 0.00 | 0.00 | 0.00 | 47 | 1018.5 |
| 20260504013504 | 22 | 148 | 3.2 | 8.0 | 0.00 | 0.00 | 0.00 | 47 | 1018.5 |
| 20260504013004 | 22 | 148 | 3.2 | 6.4 | 0.00 | 0.00 | 0.00 | 46 | 1018.4 |
| 20260504012504 | 22 | 148 | 3.2 | 6.4 | 0.00 | 0.00 | 0.00 | 46 | 1018.4 |
| 20260504012004 | 22 | 148 | 6.4 | 8.0 | 0.00 | 0.00 | 0.00 | 46 | 1018.4 |
| 20260504011504 | 22 | 148 | 6.4 | 8.0 | 0.00 | 0.00 | 0.00 | 46 | 1018.4 |
| 20260504011004 | 23 | 148 | 6.4 | 11.3 | 0.00 | 0.00 | 0.00 | 46 | 1018.3 |
| 20260504010504 | 23 | 148 | 6.4 | 11.3 | 0.00 | 0.00 | 0.00 | 45 | 1018.5 |